This demonstration page uses our WeatherBlox Daily Observations layout. Learn more.

Left ArrowRight Arrow

Hourly Observations for June 28, 2016

Temp ( °F °C ) Dew Point ( °F °C ) Humidity (%) Winds ( mph kmh ) Pressure ( in mb ) Visibility ( mi km ) Precip ( " mm )
12:53 am 00:53 Clear 77 25 51 10.6 40 40 N 3 6 29.90 1013 10 16 0.00 0.00
1:53 am 01:53 Clear 76 24.4 53 11.7 45 45 N 6 9 29.90 1012 10 16 0.00 0.00
2:53 am 02:53 Clear 75 23.9 52 11.1 45 45 N 3 6 29.90 1013 10 16 0.00 0.00
3:53 am 03:53 Clear 70 21.1 54 12.2 57 57 Calm 29.91 1013 10 16 0.00 0.00
4:53 am 04:53 Clear 68 20 55 12.8 63 63 N 3 6 29.91 1013 10 16 0.00 0.00
5:53 am 05:53 Sunny 65 18.3 56 13.3 73 73 Calm 29.92 1013 10 16 0.00 0.00
6:53 am 06:53 Sunny 68 20 56 13.3 65 65 Calm 29.93 1013 10 16 0.00 0.00
7:53 am 07:53 Sunny 78 25.6 56 13.3 47 47 Calm 29.92 1013 10 16 0.00 0.00
8:53 am 08:53 Sunny 85 29.4 55 12.8 36 36 NW 3 6 29.92 1013 10 16 0.00 0.00
9:53 am 09:53 Sunny 90 32.2 53 11.7 28 28 VRB 3 6 29.91 1013 10 16 0.00 0.00
10:40 am 10:40 Sunny 90 32 54 12 29 29 VRB 3 6 29.88 1012 10 16 0.00 0.00
10:53 am 10:53 Sunny 95 35 50 10 22 22 N 7 11 29.91 1013 10 16 0.00 0.00
11:53 am 11:53 Sunny 98 36.7 49 9.4 19 19 NNE 6 9 29.90 1013 10 16 0.00 0.00
12:53 pm 12:53 Sunny 100 37.8 49 9.4 18 18 WNW 6 9 29.88 1012 10 16 0.00 0.00
1:53 pm 13:53 Sunny 101 38.3 46 7.8 15 15 VRB 5 7 29.87 1012 10 16 0.00 0.00
2:53 pm 14:53 Sunny 102 38.9 47 8.3 15 15 SW 6 9 29.85 1011 10 16 0.00 0.00
3:53 pm 15:53 Sunny 104 40 45 7.2 13 13 Calm 29.84 1010 10 16 0.00 0.00
4:53 pm 16:53 Sunny 104 40 40 4.4 11 11 VRB 5 7 29.82 1010 10 16 0.00 0.00
5:53 pm 17:53 Sunny 105 40.6 42 5.6 12 12 S 6 9 29.80 1009 10 16 0.00 0.00
6:53 pm 18:53 Sunny 103 39.4 44 6.7 13 13 SSE 9 15 29.80 1009 10 16 0.00 0.00
7:53 pm 19:53 Sunny 99 37.2 52 11.1 21 21 SSE 8 13 29.80 1009 10 16 0.00 0.00
8:53 pm 20:53 Clear 93 33.9 54 12.2 27 27 Calm 29.81 1010 10 16 0.00 0.00
9:53 pm 21:53 Clear 91 32.8 51 10.6 26 26 Calm 29.83 1010 10 16 0.00 0.00
10:53 pm 22:53 Clear 86 30 51 10.6 30 30 Calm 29.84 1010 10 16 0.00 0.00
11:53 pm 23:53 Clear 82 27.8 54 12.2 38 38 N 6 9 29.85 1011 10 16 0.00 0.00

Powered by AerisWeather